TimeCST,TemperatureF,Dew PointF,Humidity,Sea Level PressureIn,VisibilityMPH,Wind Direction,Wind SpeedMPH,Gust SpeedMPH,PrecipitationIn,Events,Conditions,WindDirDegrees,DateUTC
12:53 AM,36.0,26.1,67,30.15,10.0,West,5.8,-,N/A,,Clear,270,2013-02-12 06:53:00
1:53 AM,34.0,26.1,73,30.16,10.0,WNW,5.8,-,N/A,,Clear,290,2013-02-12 07:53:00
2:53 AM,32.0,25.0,75,30.16,10.0,West,3.5,-,N/A,,Clear,280,2013-02-12 08:53:00
3:53 AM,32.0,26.1,79,30.15,10.0,Calm,Calm,-,N/A,,Clear,0,2013-02-12 09:53:00
4:53 AM,28.9,25.0,85,30.17,8.0,Calm,Calm,-,N/A,,Clear,0,2013-02-12 10:53:00
6:53 AM,28.0,25.0,88,30.18,4.0,Calm,Calm,-,N/A,,Clear,0,2013-02-12 12:53:00
7:53 AM,33.1,28.0,82,30.17,4.0,Calm,Calm,-,N/A,,Haze,0,2013-02-12 13:53:00
8:53 AM,35.1,28.0,76,30.18,6.0,Calm,Calm,-,N/A,,Haze,0,2013-02-12 14:53:00
9:53 AM,37.0,28.0,70,30.18,6.0,Calm,Calm,-,N/A,,Haze,0,2013-02-12 15:53:00
10:53 AM,41.0,28.9,62,30.13,7.0,North,3.5,-,N/A,,Clear,350,2013-02-12 16:53:00
11:53 AM,43.0,28.9,58,30.13,8.0,Calm,Calm,-,N/A,,Clear,0,2013-02-12 17:53:00
12:53 PM,45.0,28.9,53,30.10,8.0,Variable,4.6,-,N/A,,Clear,0,2013-02-12 18:53:00
1:53 PM,45.0,28.0,52,30.10,9.0,WSW,3.5,-,N/A,,Clear,250,2013-02-12 19:53:00
2:53 PM,46.9,28.9,50,30.06,9.0,NW,5.8,-,N/A,,Clear,310,2013-02-12 20:53:00
4:53 PM,44.1,30.0,58,30.02,7.0,NNW,5.8,-,N/A,,Clear,330,2013-02-12 22:53:00
5:53 PM,42.1,30.0,62,30.03,8.0,Calm,Calm,-,N/A,,Clear,0,2013-02-12 23:53:00
6:53 PM,37.0,30.9,79,30.01,7.0,Calm,Calm,-,N/A,,Clear,0,2013-02-13 00:53:00
7:53 PM,37.9,34.0,86,29.97,7.0,Calm,Calm,-,N/A,,Clear,0,2013-02-13 01:53:00
8:53 PM,37.9,32.0,79,29.98,8.0,Calm,Calm,-,N/A,,Clear,0,2013-02-13 02:53:00
9:53 PM,37.9,30.9,76,29.96,7.0,NNE,6.9,-,N/A,,Overcast,30,2013-02-13 03:53:00
10:53 PM,37.9,30.9,76,29.94,7.0,NNE,6.9,-,N/A,,Overcast,20,2013-02-13 04:53:00
11:53 PM,37.0,30.9,79,29.93,5.0,NNE,8.1,-,N/A,,Haze,20,2013-02-13 05:53:00